When you browse on this site, cookies collect data to enhance your experience and personalize the content and advertising you see.
Visit our Privacy Policy to learn more. By continuing to use the site, you agree to this use of cookies and data.
  • In Portugal
  • List of Countries
  • For 7 days
  • Water Temperature
  • Weather Map
  • Weather Widgets
  • user-avatar
    Login

    Hourly Weather Minsk

    Today, 2 June, Tuesday

    Time Temperature Precipitation Wind Pressure Humidity
    00:00 +7°C° 0.2 mm 6 mps 739 mmHg 90%
    01:00 +6°C° 0.2 mm 7 mps 739 mmHg 90%
    02:00 +6°C° 0.2 mm 7 mps 738 mmHg 90%
    03:00 +6°C° 0.2 mm 8 mps 738 mmHg 90%
    04:00 +6°C° 0.2 mm 8 mps 737 mmHg 91%
    05:00 +6°C° 0.2 mm 9 mps 737 mmHg 91%
    06:00 +6°C° 0.8 mm 9 mps 737 mmHg 91%
    07:00 +6°C° 0.8 mm 9 mps 737 mmHg 92%
    08:00 +6°C° 0.8 mm 9 mps 737 mmHg 92%
    09:00 +6°C° 0.2 mm 9 mps 736 mmHg 91%
    10:00 +6°C° 0.2 mm 9 mps 736 mmHg 90%
    11:00 +6°C° 0.2 mm 9 mps 736 mmHg 89%
    12:00 +6°C° 0.7 mm 9 mps 736 mmHg 90%
    13:00 +6°C° 0.7 mm 9 mps 736 mmHg 91%
    14:00 +6°C° 0.7 mm 9 mps 736 mmHg 91%
    15:00 +6°C° 0.9 mm 9 mps 736 mmHg 92%
    16:00 +6°C° 0.9 mm 9 mps 736 mmHg 93%
    17:00 +6°C° 0.9 mm 8 mps 735 mmHg 94%
    18:00 +6°C° 0.2 mm 7 mps 735 mmHg 94%
    19:00 +6°C° 0.2 mm 7 mps 736 mmHg 94%
    20:00 +8°C° 0.2 mm 6 mps 736 mmHg 94%
    21:00 +8°C° 0 mm 5 mps 736 mmHg 95%
    22:00 +7°C° 0 mm 5 mps 736 mmHg 95%
    23:00 +7°C° 0 mm 5 mps 735 mmHg 96%

    Tomorrow, 3 June, Wednesday

    Time Temperature Precipitation Wind Pressure Humidity
    00:00 +7°C° 0 mm 4 mps 735 mmHg 95%
    01:00 +7°C° 0 mm 4 mps 735 mmHg 95%
    02:00 +7°C° 0 mm 4 mps 736 mmHg 95%
    03:00 +7°C° 0 mm 4 mps 735 mmHg 95%
    04:00 +7°C° 0 mm 4 mps 735 mmHg 95%
    05:00 +6°C° 0 mm 4 mps 735 mmHg 96%
    06:00 +8°C° 0 mm 4 mps 735 mmHg 92%
    07:00 +9°C° 0 mm 5 mps 735 mmHg 88%
    08:00 +10°C° 0 mm 5 mps 735 mmHg 84%
    09:00 +11°C° 0.3 mm 6 mps 735 mmHg 80%
    10:00 +13°C° 0.3 mm 6 mps 735 mmHg 76%
    11:00 +14°C° 0.3 mm 6 mps 735 mmHg 72%
    12:00 +14°C° 0.7 mm 6 mps 735 mmHg 73%
    13:00 +14°C° 0.7 mm 5 mps 734 mmHg 74%
    14:00 +14°C° 0.7 mm 5 mps 734 mmHg 76%
    15:00 +14°C° 0.8 mm 5 mps 734 mmHg 78%
    16:00 +14°C° 0.8 mm 5 mps 734 mmHg 79%
    17:00 +14°C° 0.8 mm 5 mps 733 mmHg 81%
    18:00 +13°C° 0.5 mm 4 mps 733 mmHg 84%
    19:00 +12°C° 0.5 mm 4 mps 733 mmHg 87%
    20:00 +11°C° 0.5 mm 4 mps 733 mmHg 90%
    21:00 +10°C° 0.1 mm 3 mps 733 mmHg 91%
    22:00 +10°C° 0.1 mm 3 mps 733 mmHg 93%
    23:00 +9°C° 0.1 mm 3 mps 733 mmHg 94%

    Day after tomorrow, 4 June, Thursday

    Time Temperature Precipitation Wind Pressure Humidity
    00:00 +9°C° 0 mm 3 mps 733 mmHg 95%
    01:00 +8°C° 0 mm 3 mps 732 mmHg 96%
    02:00 +7°C° 0 mm 3 mps 732 mmHg 96%
    03:00 +7°C° 0 mm 2 mps 732 mmHg 97%
    04:00 +7°C° 0 mm 2 mps 732 mmHg 97%
    05:00 +7°C° 0 mm 2 mps 732 mmHg 98%
    06:00 +8°C° 0 mm 2 mps 732 mmHg 94%
    07:00 +10°C° 0 mm 3 mps 732 mmHg 89%
    08:00 +11°C° 0 mm 3 mps 732 mmHg 85%
    09:00 +12°C° 0.2 mm 3 mps 732 mmHg 82%
    10:00 +13°C° 0.2 mm 3 mps 732 mmHg 79%
    11:00 +14°C° 0.2 mm 4 mps 731 mmHg 76%
    12:00 +14°C° 0.5 mm 4 mps 731 mmHg 74%
    13:00 +16°C° 0.5 mm 3 mps 731 mmHg 72%
    14:00 +16°C° 0.5 mm 3 mps 731 mmHg 71%
    15:00 +16°C° 0.3 mm 3 mps 731 mmHg 71%
    16:00 +16°C° 0.3 mm 3 mps 731 mmHg 71%
    17:00 +16°C° 0.3 mm 2 mps 731 mmHg 71%
    18:00 +15°C° 0.6 mm 2 mps 730 mmHg 75%
    19:00 +14°C° 0.6 mm 2 mps 730 mmHg 80%
    20:00 +13°C° 0.6 mm 1 mps 730 mmHg 84%
    21:00 +12°C° 0 mm 1 mps 730 mmHg 86%
    22:00 +10°C° 0 mm 2 mps 731 mmHg 88%
    23:00 +9°C° 0 mm 2 mps 731 mmHg 91%

    5 June, Friday

    Time Temperature Precipitation Wind Pressure Humidity
    00:00 +8°C° 0 mm 2 mps 731 mmHg 92%
    01:00 +8°C° 0 mm 2 mps 731 mmHg 93%
    02:00 +8°C° 0 mm 2 mps 731 mmHg 94%
    03:00 +9°C° 0 mm 1 mps 731 mmHg 94%
    04:00 +9°C° 0 mm 1 mps 731 mmHg 94%
    05:00 +9°C° 0 mm 1 mps 732 mmHg 94%
    06:00 +10°C° 0 mm 1 mps 732 mmHg 90%
    07:00 +12°C° 0 mm 1 mps 732 mmHg 86%
    08:00 +14°C° 0 mm 2 mps 733 mmHg 82%
    09:00 +15°C° 0 mm 2 mps 733 mmHg 76%
    10:00 +17°C° 0 mm 2 mps 733 mmHg 69%
    11:00 +18°C° 0 mm 3 mps 733 mmHg 63%
    12:00 +19°C° 0 mm 3 mps 733 mmHg 61%
    13:00 +20°C° 0 mm 3 mps 733 mmHg 59%
    14:00 +21°C° 0 mm 2 mps 733 mmHg 56%
    15:00 +21°C° 0 mm 2 mps 733 mmHg 58%
    16:00 +21°C° 0 mm 2 mps 733 mmHg 61%
    17:00 +21°C° 0 mm 2 mps 733 mmHg 63%
    18:00 +19°C° 0 mm 3 mps 733 mmHg 69%
    19:00 +18°C° 0 mm 3 mps 733 mmHg 76%
    20:00 +17°C° 0 mm 3 mps 733 mmHg 83%
    21:00 +16°C° 0 mm 3 mps 733 mmHg 87%
    22:00 +14°C° 0 mm 3 mps 733 mmHg 91%
    23:00 +13°C° 0 mm 3 mps 733 mmHg 95%

    6 June, Saturday

    Time Temperature Precipitation Wind Pressure Humidity
    00:00 +13°C° 0.1 mm 3 mps 733 mmHg 95%
    01:00 +13°C° 0.1 mm 3 mps 733 mmHg 96%
    02:00 +13°C° 0.1 mm 3 mps 733 mmHg 96%
    03:00 +13°C° 0.2 mm 3 mps 733 mmHg 96%
    04:00 +13°C° 0.2 mm 3 mps 732 mmHg 96%
    05:00 +13°C° 0.2 mm 4 mps 732 mmHg 96%
    06:00 +15°C° 0 mm 4 mps 732 mmHg 93%
    07:00 +17°C° 0 mm 4 mps 732 mmHg 90%
    08:00 +18°C° 0 mm 4 mps 732 mmHg 87%
    09:00 +20°C° 0.1 mm 5 mps 732 mmHg 83%
    10:00 +21°C° 0.1 mm 5 mps 732 mmHg 78%
    11:00 +22°C° 0.1 mm 6 mps 732 mmHg 74%
    12:00 +22°C° 1.7 mm 5 mps 732 mmHg 76%
    13:00 +22°C° 1.7 mm 4 mps 731 mmHg 78%
    14:00 +21°C° 1.7 mm 4 mps 731 mmHg 80%
    15:00 +20°C° 1.2 mm 4 mps 731 mmHg 83%
    16:00 +20°C° 1.2 mm 4 mps 731 mmHg 86%
    17:00 +19°C° 1.2 mm 4 mps 731 mmHg 90%
    18:00 +18°C° 0.3 mm 3 mps 731 mmHg 91%
    19:00 +17°C° 0.3 mm 3 mps 731 mmHg 92%
    20:00 +16°C° 0.3 mm 3 mps 732 mmHg 94%
    21:00 +14°C° 0 mm 4 mps 732 mmHg 94%
    22:00 +13°C° 0 mm 4 mps 732 mmHg 95%
    23:00 +12°C° 0 mm 5 mps 732 mmHg 95%

    7 June, Sunday

    Time Temperature Precipitation Wind Pressure Humidity
    00:00 +12°C° 0 mm 5 mps 733 mmHg 95%
    01:00 +10°C° 0 mm 5 mps 733 mmHg 94%
    02:00 +10°C° 0 mm 5 mps 733 mmHg 94%
    03:00 +9°C° 0 mm 5 mps 733 mmHg 93%
    04:00 +9°C° 0 mm 5 mps 733 mmHg 92%
    05:00 +9°C° 0 mm 5 mps 734 mmHg 92%
    06:00 +9°C° 0 mm 5 mps 734 mmHg 90%
    07:00 +10°C° 0 mm 5 mps 734 mmHg 88%
    08:00 +10°C° 0 mm 5 mps 734 mmHg 86%
    09:00 +12°C° 0 mm 5 mps 735 mmHg 81%
    10:00 +13°C° 0 mm 6 mps 735 mmHg 76%
    11:00 +15°C° 0 mm 6 mps 735 mmHg 71%
    12:00 +15°C° 0 mm 6 mps 736 mmHg 69%
    13:00 +16°C° 0 mm 6 mps 736 mmHg 66%
    14:00 +17°C° 0 mm 6 mps 736 mmHg 63%
    15:00 +17°C° 0 mm 6 mps 736 mmHg 64%
    16:00 +17°C° 0 mm 5 mps 736 mmHg 65%
    17:00 +17°C° 0 mm 5 mps 737 mmHg 66%
    18:00 +16°C° 0 mm 5 mps 737 mmHg 71%
    19:00 +15°C° 0 mm 4 mps 737 mmHg 75%
    20:00 +14°C° 0 mm 3 mps 737 mmHg 80%
    21:00 +13°C° 0 mm 3 mps 738 mmHg 81%
    22:00 +12°C° 0 mm 3 mps 738 mmHg 82%
    23:00 +11°C° 0 mm 3 mps 738 mmHg 84%
    Show more